Weather reports worldwide

Advertisment
Loftus, United Kingdom (3275): temperature & dewpoint: 19.05.2018 04:00:00 - 25.05.2018 04:00:00 (BST)Loftus, United Kingdom (3275): temperature -20cm & temperature -100cm: 19.05.2018 04:00:00 - 25.05.2018 04:00:00 (BST)Loftus, United Kingdom (3275): wind speed: 19.05.2018 04:00:00 - 25.05.2018 04:00:00 (BST)Loftus, United Kingdom (3275): wind direction: 19.05.2018 04:00:00 - 25.05.2018 04:00:00 (BST)Loftus, United Kingdom (3275): reduced air pressure: 19.05.2018 04:00:00 - 25.05.2018 04:00:00 (BST)Loftus, United Kingdom (3275): visibility: 19.05.2018 04:00:00 - 25.05.2018 04:00:00 (BST)Loftus, United Kingdom (3275): precipitation: 19.05.2018 04:00:00 - 25.05.2018 04:00:00 (BST)
Date & Time tt [°C] td [°C] tt -20cm [°C] tt -100cm [°C] ff [km/h] ff [kn] dd ppp [hPa] vv [km] rr [mm]
25.05.2018 04:00:00 9,1 9,1 - - 21 11 NW 1022,4 - 0,0
25.05.2018 03:00:00 9,0 9,0 - - 24 13 NW 1022,5 - 0,0
25.05.2018 02:00:00 9,4 9,4 - - 21 11 NW 1022,8 - 0,0
25.05.2018 01:00:00 9,4 9,4 - - 16 9 NNW 1023,3 - 0,0
25.05.2018 00:00:00 9,1 9,0 - - 21 11 NW 1023,6 - 0,0
24.05.2018 23:00:00 9,1 9,1 - - 22 12 NNW 1023,7 - 0,0
24.05.2018 22:00:00 9,4 9,3 - - 18 10 NW 1023,9 - 0,0
24.05.2018 21:00:00 9,5 9,4 - - 16 9 NW 1023,6 - 0,0
24.05.2018 20:00:00 9,6 9,4 - - 15 8 NNW 1023,7 0,7 0,0
24.05.2018 19:00:00 9,6 9,2 - - 11 6 NNW 1023,7 0,9 0,0
24.05.2018 18:00:00 9,7 9,1 - - 11 6 N 1024,1 1,6 0,0
24.05.2018 17:00:00 9,8 9,0 - - 11 6 N 1024,4 4,9 0,0
24.05.2018 16:00:00 9,9 8,8 - - 9 5 N 1024,7 4,5 0,0
24.05.2018 15:00:00 9,6 8,7 - - 11 6 N 1025,1 11 0,0
24.05.2018 14:00:00 9,9 9,0 - - 11 6 N 1025,5 2,9 0,0
24.05.2018 13:00:00 9,4 8,6 - - 9 5 NNE 1026,0 1,3 0,0
24.05.2018 12:00:00 9,0 8,3 - - 9 5 NE 1026,4 7 0,0
24.05.2018 11:00:00 8,7 8,2 - - 11 6 NE 1026,6 9 0,0
24.05.2018 10:00:00 8,0 7,8 12,7 11,5 9 5 NNE 1027,0 10 0,0
24.05.2018 09:00:00 7,7 7,6 - - 11 6 NNE 1027,2 2,7 0,0
24.05.2018 08:00:00 7,5 7,4 - - 11 6 NNE 1027,0 1,1 0,0
24.05.2018 07:00:00 7,4 7,3 - - 9 5 NE 1027,2 0,1 0,0
24.05.2018 06:00:00 7,4 7,3 - - 11 6 NE 1027,3 0,1 0,0
24.05.2018 05:00:00 7,0 6,9 - - 11 6 NE 1027,6 0,2 0,0
24.05.2018 04:00:00 7,3 7,2 - - 11 6 NE 1027,8 2,4 0,0
24.05.2018 03:00:00 7,3 7,1 - - 9 5 NE 1028,1 0,3 0,0
24.05.2018 02:00:00 7,6 7,3 - - 9 5 ENE 1028,2 0,2 0,0
24.05.2018 01:00:00 7,5 7,0 - - 9 5 ENE 1028,5 3,4 0,0
24.05.2018 00:00:00 7,6 7,0 - - 11 6 ENE 1028,6 6 0,0
23.05.2018 23:00:00 7,8 7,0 - - 8 4 NE 1028,8 10 0,0
23.05.2018 22:00:00 7,9 7,1 - - 13 7 ENE 1028,8 15 0,0
23.05.2018 21:00:00 8,1 7,0 - - 11 6 NE 1028,5 17 0,0
23.05.2018 20:00:00 8,5 7,1 - - 11 6 NE 1028,3 21 0,0
23.05.2018 19:00:00 8,8 7,2 - - 13 7 NE 1028,2 24 0,0
23.05.2018 18:00:00 9,0 7,3 - - 11 6 NE 1028,3 25 0,0
23.05.2018 17:00:00 9,4 7,6 - - 11 6 NE 1028,4 23 0,0
23.05.2018 16:00:00 10,2 7,8 - - 13 7 NE 1028,4 29 0,0
23.05.2018 15:00:00 9,9 8,0 - - 13 7 NNE 1028,7 24 0,0
23.05.2018 14:00:00 10,4 8,3 - - 13 7 NNE 1028,7 28 0,0
23.05.2018 13:00:00 10,1 7,7 - - 11 6 NNE 1028,7 29 0,0
23.05.2018 12:00:00 10,0 7,9 - - 13 7 NE 1028,6 23 0,0
23.05.2018 11:00:00 9,7 7,6 - - 11 6 NE 1028,3 26 0,0
23.05.2018 10:00:00 9,4 7,6 12,7 11,5 11 6 NNE 1028,1 21 0,0
23.05.2018 09:00:00 8,8 7,2 - - 15 8 NE 1027,8 21 0,0
23.05.2018 08:00:00 8,7 7,5 - - 11 6 NNE 1027,5 18 0,0
23.05.2018 07:00:00 8,5 7,1 - - 15 8 N 1027,1 18 0,0
23.05.2018 06:00:00 8,4 7,1 - - 13 7 N 1026,6 16 0,0
23.05.2018 05:00:00 8,3 7,0 - - 16 9 N 1026,2 16 0,0
23.05.2018 04:00:00 8,3 7,2 - - 16 9 N 1026,0 15 0,0
23.05.2018 03:00:00 8,2 7,1 - - 18 10 N 1025,9 15 0,0
23.05.2018 02:00:00 8,4 7,4 - - 16 9 N 1025,7 12 0,0
23.05.2018 01:00:00 8,3 7,3 - - 16 9 N 1025,7 13 0,0
23.05.2018 00:00:00 8,4 7,3 - - 18 10 N 1025,7 15 0,0
22.05.2018 23:00:00 8,4 7,2 - - 18 10 N 1025,3 13 0,0
22.05.2018 22:00:00 8,5 7,4 - - 18 10 N 1025,0 12 0,0
22.05.2018 21:00:00 8,6 7,7 - - 21 11 N 1024,3 10 0,0
22.05.2018 20:00:00 8,6 7,6 - - 21 11 NNW 1024,0 12 0,0
22.05.2018 19:00:00 8,5 8,2 - - 22 12 NNW 1023,8 10 0,0
22.05.2018 18:00:00 9,2 8,4 - - 18 10 NNW 1023,6 4,2 0,0
22.05.2018 17:00:00 8,9 8,6 - - 22 12 NNW 1023,5 4,7 0,0
22.05.2018 16:00:00 8,8 8,4 - - 24 13 NW 1023,1 6 0,0
22.05.2018 15:00:00 9,1 8,4 - - 26 14 NNW 1023,0 5 0,0
22.05.2018 14:00:00 9,3 8,1 - - 24 13 NNW 1022,9 18 0,0
22.05.2018 13:00:00 9,2 7,9 - - 22 12 NNW 1022,7 21 0,0
22.05.2018 12:00:00 9,2 8,1 - - 21 11 NNW 1022,3 18 0,0
22.05.2018 11:00:00 9,0 8,2 - - 22 12 NNW 1022,3 18 0,0
22.05.2018 10:00:00 8,6 8,4 13,7 11,2 24 13 NNW 1022,3 14 0,0
22.05.2018 09:00:00 8,3 8,3 - - 26 14 NNW 1022,1 8 0,0
22.05.2018 08:00:00 8,3 8,3 - - 21 11 NNW 1021,4 1,3 0,0
22.05.2018 07:00:00 8,2 8,2 - - 22 12 N 1020,9 0,4 0,0
22.05.2018 06:00:00 8,3 8,3 - - 21 11 N 1020,5 0,1 0,0
22.05.2018 05:00:00 8,3 8,2 - - 22 12 N 1020,2 - 0,0
22.05.2018 04:00:00 8,4 8,3 - - 22 12 NNW 1020,0 - 0,0
22.05.2018 03:00:00 10,0 9,8 - - 13 7 NW 1019,6 1,0 0,0
22.05.2018 02:00:00 10,2 10,0 - - 18 10 NNW 1019,4 0,1 0,0
22.05.2018 01:00:00 7,9 6,6 - - 9 5 WNW 1018,9 2,2 0,0
22.05.2018 00:00:00 8,2 5,9 - - 2 1 NNE 1018,8 26 0,0
21.05.2018 23:00:00 11,4 6,2 - - 13 7 E 1018,3 30 0,0
21.05.2018 22:00:00 12,0 5,6 - - 15 8 E 1018,3 30 0,0
21.05.2018 21:00:00 12,7 6,4 - - 15 8 ESE 1017,8 29 0,0
21.05.2018 20:00:00 13,7 6,8 - - 15 8 E 1017,9 30 0,0
21.05.2018 19:00:00 15,6 6,3 - - 18 10 E 1017,6 30 0,0
21.05.2018 18:00:00 16,2 9,0 - - 18 10 ESE 1017,4 35 0,0
21.05.2018 17:00:00 16,5 7,7 - - 18 10 ESE 1017,5 35 0,0
21.05.2018 16:00:00 16,4 6,7 - - 24 13 E 1017,9 30 0,0
21.05.2018 15:00:00 16,1 7,6 - - 28 15 E 1018,1 22 0,0
21.05.2018 14:00:00 16,9 7,8 - - 22 12 E 1018,3 15 0,0
21.05.2018 13:00:00 17,1 7,0 - - 24 13 E 1018,4 40 0,0
21.05.2018 12:00:00 16,8 7,3 - - 22 12 E 1018,6 30 0,0
21.05.2018 11:00:00 17,7 9,9 - - 16 9 E 1018,7 30 0,0
21.05.2018 10:00:00 17,2 10,9 13,2 11,0 11 6 ESE 1019,1 45 0,0
21.05.2018 09:00:00 16,2 10,3 - - 5 3 SSE 1019,3 18 0,0
21.05.2018 08:00:00 14,4 9,9 - - 4 2 S 1019,4 28 0,0
21.05.2018 07:00:00 12,1 9,9 - - 4 2 WSW 1019,6 23 0,0
21.05.2018 06:00:00 10,3 8,6 - - 8 4 S 1019,4 20 0,0
21.05.2018 05:00:00 10,8 8,8 - - 8 4 SW 1019,3 23 0,0
21.05.2018 04:00:00 9,3 6,9 - - 5 3 E 1019,6 23 0,0
21.05.2018 03:00:00 11,4 8,5 - - 8 4 SW 1019,6 30 0,0
21.05.2018 02:00:00 11,8 7,8 - - 8 4 WSW 1019,8 30 0,0
21.05.2018 01:00:00 12,8 5,4 - - 15 8 S 1019,9 45 0,0
21.05.2018 00:00:00 13,1 5,8 - - 18 10 S 1020,0 50 0,0
20.05.2018 23:00:00 11,5 6,7 - - 16 9 SE 1020,2 35 0,0
20.05.2018 22:00:00 12,1 7,4 - - 21 11 SE 1020,1 30 0,0
20.05.2018 21:00:00 14,1 8,0 - - 21 11 SSE 1019,6 40 0,0
20.05.2018 20:00:00 16,0 10,0 - - 21 11 SSE 1019,2 30 0,0
20.05.2018 19:00:00 17,3 10,8 - - 24 13 SSE 1019,0 35 0,0
20.05.2018 18:00:00 19,0 11,7 - - 24 13 SSE 1019,1 30 0,0
20.05.2018 17:00:00 20,6 12,2 - - 21 11 S 1019,2 28 0,0
20.05.2018 16:00:00 20,3 10,9 - - 16 9 S 1019,7 30 0,0
20.05.2018 15:00:00 21,9 10,8 - - 16 9 SSW 1020,1 35 0,0
20.05.2018 14:00:00 20,8 10,4 - - 22 12 SSW 1020,5 30 0,0
20.05.2018 13:00:00 20,5 9,0 - - 21 11 SSW 1020,9 40 0,0
20.05.2018 12:00:00 20,5 9,1 - - 21 11 SSW 1021,0 40 0,0
20.05.2018 11:00:00 19,5 8,5 - - 16 9 SSW 1021,2 40 0,0
20.05.2018 10:00:00 18,6 10,5 12,7 10,9 15 8 SSW 1021,4 25 0,0
20.05.2018 09:00:00 15,9 8,9 - - 9 5 S 1021,8 30 0,0
20.05.2018 08:00:00 13,7 8,2 - - 5 3 SSE 1022,0 26 0,0
20.05.2018 07:00:00 11,5 7,2 - - 4 2 S 1021,9 35 0,0
20.05.2018 06:00:00 10,0 6,1 - - 13 7 SSW 1021,6 40 0,0
20.05.2018 05:00:00 10,8 6,5 - - 15 8 S 1021,5 40 0,0
20.05.2018 04:00:00 11,2 2,1 - - 22 12 S 1021,5 50 0,0
20.05.2018 03:00:00 11,8 1,0 - - 22 12 S 1021,5 50 0,0
20.05.2018 02:00:00 12,5 2,5 - - 26 14 S 1021,4 50 0,0
20.05.2018 01:00:00 12,6 3,5 - - 22 12 S 1021,8 50 0,0
20.05.2018 00:00:00 12,8 4,8 - - 22 12 S 1021,7 50 0,0
19.05.2018 23:00:00 12,7 3,8 - - 22 12 S 1021,7 50 0,0
19.05.2018 22:00:00 12,6 4,9 - - 21 11 S 1021,8 45 0,0
19.05.2018 21:00:00 13,4 6,1 - - 22 12 SSE 1021,5 40 0,0
19.05.2018 20:00:00 15,0 7,0 - - 22 12 SSE 1021,3 40 0,0
19.05.2018 19:00:00 17,1 8,1 - - 26 14 SSE 1021,1 35 0,0
19.05.2018 18:00:00 18,7 7,4 - - 21 11 S 1021,3 35 0,0
19.05.2018 17:00:00 19,5 7,7 - - 22 12 S 1021,3 45 0,0
19.05.2018 16:00:00 19,4 7,0 - - 16 9 S 1021,6 45 0,0
19.05.2018 15:00:00 17,6 7,5 - - 24 13 E 1022,0 35 0,0
19.05.2018 14:00:00 17,4 9,0 - - 24 13 ESE 1022,7 30 0,0
19.05.2018 13:00:00 17,0 9,1 - - 18 10 E 1023,0 35 0,0
19.05.2018 12:00:00 16,2 7,4 - - 18 10 E 1023,5 22 0,0
19.05.2018 11:00:00 14,9 8,0 - - 18 10 E 1023,8 17 0,0
19.05.2018 10:00:00 15,4 9,5 12,2 10,7 9 5 ESE 1024,0 28 0,0
19.05.2018 09:00:00 13,1 8,7 - - 9 5 ESE 1024,4 24 0,0
19.05.2018 08:00:00 11,4 7,9 - - 11 6 ESE 1024,5 21 0,0
19.05.2018 07:00:00 10,2 8,5 - - 4 2 E 1024,2 23 0,0
19.05.2018 06:00:00 7,6 6,3 - - 4 2 N 1024,1 24 0,0
19.05.2018 05:00:00 7,4 5,2 - - 5 3 SSW 1023,8 23 0,0
19.05.2018 04:00:00 6,9 5,2 - - 4 2 SE 1024,0 27 0,0

tt = temperature
td = dewpoint
tt -20cm = temperature -20cm
tt -100cm = temperature -100cm
ff = wind speed
dd = wind direction
ppp = reduced air pressure
vv = visibility
rr = precipitation

Next stations